contact:dominique.lefevre@mio.osupytheas.fr, maurice.libes@osupytheas.fr, didier.mallarino@osupytheas.fr
Project:EMSO http://www.emso-fr.org/EMSO-France
Depth: 2436.0 m
Title:EMSO Ligure Ouest : Data MII capteur AQUADOPP
Date,Latitude,Longitude,X_East,Y_North,Z_Up,Amplitude_X,Amplitude_Y,Amplitude_Z,Batterie,SoundSpeed,Heading,Pitch,Roll,Pressure,TIS,Speed,Direction
, degrees North, degrees East, m.s-1, m.s-1,m.s-1, 1, 1, 1, Volt, m.s-1, degree, degree, degree, dbar, degree_C, m.s-1, degree
2020-12-26T00:04:03,42.805,6.029,0.004,0.017,-0.025,101.0,112.0,99.0,13.3,1505.3,325.7,-0.7,1.8,2470.358,13.31,0.017,13.2
2020-12-26T00:07:03,42.805,6.029,0.0,0.03,0.019,103.0,113.0,100.0,13.3,1505.3,324.6,-0.7,1.8,2470.306,13.32,0.03,0.0
2020-12-26T00:10:03,42.805,6.029,0.008,0.013,0.011,100.0,112.0,101.0,13.4,1505.3,325.4,-0.7,1.8,2470.351,13.32,0.015,31.6
2020-12-26T00:13:03,42.805,6.029,-0.015,0.038,0.0,103.0,113.0,100.0,13.4,1505.3,327.9,-0.7,1.8,2470.316,13.32,0.04,338.5
2020-12-26T00:16:03,42.805,6.029,-0.012,0.011,0.016,102.0,111.0,100.0,13.3,1505.3,327.9,-0.7,1.8,2470.323,13.33,0.016,312.5
2020-12-26T00:19:03,42.805,6.029,-0.041,0.026,-0.021,102.0,111.0,100.0,13.4,1505.3,323.3,-0.7,1.8,2470.277,13.33,0.048,302.4
2020-12-26T00:22:03,42.805,6.029,-0.002,0.012,-0.021,102.0,111.0,100.0,13.3,1505.3,325.5,-0.7,1.8,2470.313,13.33,0.012,350.5
2020-12-26T00:25:03,42.805,6.029,-0.024,-0.002,0.0,100.0,113.0,100.0,13.4,1505.3,324.9,-0.7,1.8,2470.313,13.33,0.024,265.2
2020-12-26T00:28:03,42.805,6.029,0.013,0.008,0.003,102.0,113.0,100.0,13.4,1505.3,327.2,-0.7,1.8,2470.337,13.33,0.015,58.4
2020-12-26T00:31:03,42.805,6.029,-0.001,0.008,0.006,101.0,113.0,100.0,13.4,1505.3,327.6,-0.7,1.8,2470.353,13.33,0.008,352.9
2020-12-26T00:34:03,42.805,6.029,0.004,0.007,0.009,102.0,111.0,100.0,13.4,1505.3,323.7,-0.7,1.8,2470.321,13.33,0.008,29.7
2020-12-26T00:37:03,42.805,6.029,0.015,0.01,-0.007,101.0,111.0,100.0,13.4,1505.3,322.8,-0.7,1.8,2470.322,13.33,0.018,56.3
2020-12-26T00:40:03,42.805,6.029,0.029,-0.005,-0.011,101.0,110.0,100.0,13.4,1505.3,325.1,-0.7,1.8,2470.295,13.33,0.029,99.8
2020-12-26T00:43:03,42.805,6.029,0.011,0.001,-0.022,102.0,111.0,99.0,13.4,1505.3,325.9,-0.7,1.8,2470.298,13.33,0.011,84.8
2020-12-26T00:46:03,42.805,6.029,0.015,0.007,0.026,102.0,111.0,100.0,13.4,1505.3,326.9,-0.7,1.8,2470.303,13.33,0.016,65.0
2020-12-26T00:49:03,42.805,6.029,0.007,0.009,0.015,102.0,111.0,100.0,13.4,1505.3,324.4,-0.7,1.8,2470.328,13.33,0.011,37.9
2020-12-26T00:52:03,42.805,6.029,-0.001,0.012,-0.022,101.0,111.0,100.0,13.4,1505.3,324.3,-0.7,1.8,2470.277,13.33,0.012,355.2
2020-12-26T00:55:03,42.805,6.029,0.008,0.025,-0.018,102.0,112.0,100.0,13.3,1505.3,325.9,-0.7,1.8,2470.323,13.33,0.026,17.7
2020-12-26T00:58:03,42.805,6.029,-0.004,0.02,-0.016,101.0,111.0,100.0,13.4,1505.3,325.3,-0.7,1.8,2470.282,13.33,0.02,348.7
2020-12-26T01:04:03,42.805,6.029,-0.01,0.008,-0.015,104.0,113.0,99.0,13.4,1505.3,326.6,-0.8,1.8,2470.38,13.31,0.012,308.7
2020-12-26T01:07:03,42.805,6.029,-0.006,0.009,0.0,103.0,110.0,98.0,13.4,1505.3,325.6,-0.7,1.8,2470.314,13.32,0.01,326.3
2020-12-26T01:10:03,42.805,6.029,-0.012,0.013,-0.003,100.0,112.0,100.0,13.4,1505.3,328.1,-0.7,1.8,2470.356,13.32,0.017,317.3
2020-12-26T01:13:03,42.805,6.029,0.011,0.023,0.012,102.0,112.0,100.0,13.3,1505.3,326.5,-0.7,1.8,2470.355,13.32,0.025,25.6
2020-12-26T01:16:03,42.805,6.029,-0.006,0.005,0.018,102.0,113.0,100.0,13.3,1505.3,322.9,-0.7,1.8,2470.345,13.33,0.007,309.8
2020-12-26T01:19:03,42.805,6.029,-0.017,0.038,-0.027,101.0,112.0,99.0,13.4,1505.3,326.8,-0.7,1.8,2470.344,13.33,0.041,335.9
2020-12-26T01:22:03,42.805,6.029,-0.009,0.023,-0.01,101.0,110.0,99.0,13.4,1505.3,324.2,-0.7,1.8,2470.312,13.33,0.024,338.6
2020-12-26T01:25:03,42.805,6.029,0.013,0.025,0.007,102.0,111.0,100.0,13.3,1505.3,327.6,-0.7,1.9,2470.303,13.33,0.028,27.5
2020-12-26T01:28:03,42.805,6.029,0.002,0.016,0.032,102.0,114.0,99.0,13.4,1505.3,323.4,-0.7,1.9,2470.301,13.33,0.016,7.1
2020-12-26T01:31:03,42.805,6.029,-0.001,0.007,-0.014,102.0,112.0,99.0,13.4,1505.3,325.7,-0.7,1.8,2470.339,13.33,0.007,351.9
2020-12-26T01:34:03,42.805,6.029,0.02,0.013,0.007,102.0,112.0,99.0,13.4,1505.3,324.8,-0.7,1.8,2470.369,13.33,0.023,57.0
2020-12-26T01:37:03,42.805,6.029,-0.003,0.033,-0.012,101.0,113.0,99.0,13.4,1505.3,325.5,-0.7,1.8,2470.32,13.33,0.033,354.8
2020-12-26T01:40:03,42.805,6.029,-0.009,0.018,0.015,101.0,114.0,100.0,13.4,1505.3,322.8,-0.7,1.8,2470.338,13.33,0.02,333.4
2020-12-26T01:43:03,42.805,6.029,-0.015,0.029,-0.014,100.0,113.0,99.0,13.4,1505.3,323.2,-0.7,1.8,2470.301,13.33,0.032,332.6
2020-12-26T01:46:03,42.805,6.029,0.001,0.021,0.018,105.0,112.0,99.0,13.4,1505.3,322.6,-0.7,1.8,2470.37,13.33,0.021,2.7
2020-12-26T01:49:03,42.805,6.029,0.002,0.019,0.01,102.0,112.0,99.0,13.4,1505.3,326.4,-0.7,1.8,2470.328,13.33,0.019,6.0
2020-12-26T01:52:03,42.805,6.029,0.014,0.01,0.005,101.0,111.0,99.0,13.4,1505.3,324.5,-0.7,1.9,2470.329,13.33,0.017,54.5
2020-12-26T01:55:03,42.805,6.029,-0.001,0.015,0.004,102.0,112.0,99.0,13.4,1505.3,325.8,-0.7,1.8,2470.344,13.33,0.015,356.2
2020-12-26T01:58:03,42.805,6.029,-0.033,0.021,0.012,101.0,111.0,99.0,13.4,1505.3,327.0,-0.6,1.8,2470.362,13.33,0.039,302.5
2020-12-26T02:04:03,42.805,6.029,-0.005,0.011,0.045,102.0,111.0,99.0,13.4,1505.3,327.7,-0.8,1.8,2470.403,13.31,0.012,335.6
2020-12-26T02:07:03,42.805,6.029,-0.008,0.027,0.026,100.0,112.0,100.0,13.4,1505.3,326.9,-0.7,1.8,2470.354,13.32,0.028,343.5
2020-12-26T02:10:03,42.805,6.029,-0.021,-0.002,-0.004,101.0,112.0,99.0,13.3,1505.3,326.5,-0.7,1.8,2470.382,13.32,0.021,264.6
2020-12-26T02:13:03,42.805,6.029,-0.012,0.002,0.01,101.0,112.0,99.0,13.4,1505.3,325.7,-0.7,1.8,2470.38,13.33,0.012,279.5
2020-12-26T02:16:03,42.805,6.029,-0.029,0.029,0.02,101.0,112.0,100.0,13.4,1505.3,324.3,-0.7,1.8,2470.372,13.33,0.041,315.0
2020-12-26T02:19:03,42.805,6.029,0.025,-0.001,-0.013,102.0,110.0,99.0,13.4,1505.3,325.8,-0.7,1.8,2470.342,13.33,0.025,92.3
2020-12-26T02:22:03,42.805,6.029,0.01,0.017,-0.004,103.0,112.0,99.0,13.4,1505.3,328.2,-0.7,1.9,2470.346,13.33,0.019,30.5
2020-12-26T02:25:03,42.805,6.029,-0.012,0.0,-0.009,102.0,112.0,99.0,13.3,1505.3,326.8,-0.7,1.8,2470.389,13.33,0.012,270.0
2020-12-26T02:28:03,42.805,6.029,-0.009,0.014,0.018,102.0,109.0,99.0,13.4,1505.3,322.4,-0.6,1.8,2470.339,13.33,0.016,327.3
2020-12-26T02:31:03,42.805,6.029,-0.009,0.007,-0.013,100.0,111.0,101.0,13.3,1505.3,326.4,-0.7,1.8,2470.386,13.33,0.011,307.9
2020-12-26T02:34:03,42.805,6.029,0.001,0.005,-0.002,104.0,110.0,98.0,13.4,1505.3,323.9,-0.7,1.8,2470.351,13.33,0.005,11.3
2020-12-26T02:37:03,42.805,6.029,-0.004,-0.002,0.0,103.0,112.0,98.0,13.4,1505.3,328.5,-0.7,1.8,2470.363,13.33,0.004,243.4
2020-12-26T02:40:03,42.805,6.029,-0.019,0.007,-0.001,102.0,112.0,100.0,13.3,1505.3,326.6,-0.7,1.8,2470.351,13.33,0.02,290.2
2020-12-26T02:43:03,42.805,6.029,-0.007,0.007,-0.017,101.0,112.0,99.0,13.3,1505.3,325.4,-0.7,1.8,2470.361,13.33,0.009,315.0
2020-12-26T02:46:03,42.805,6.029,-0.019,0.011,-0.027,100.0,111.0,101.0,13.4,1505.3,325.1,-0.7,1.8,2470.349,13.33,0.021,300.1
2020-12-26T02:49:03,42.805,6.029,-0.003,0.004,0.006,102.0,112.0,98.0,13.4,1505.3,325.9,-0.7,1.8,2470.37,13.33,0.005,323.1
2020-12-26T02:52:03,42.805,6.029,0.013,0.0,0.019,100.0,110.0,100.0,13.4,1505.3,326.3,-0.7,1.8,2470.377,13.33,0.013,90.0
2020-12-26T02:55:03,42.805,6.029,0.006,0.016,-0.002,101.0,111.0,100.0,13.4,1505.3,323.2,-0.7,1.8,2470.406,13.33,0.017,20.6
2020-12-26T02:58:03,42.805,6.029,0.011,0.006,-0.019,100.0,111.0,100.0,13.3,1505.3,326.1,-0.7,1.8,2470.37,13.33,0.012,61.4
2020-12-26T03:04:03,42.805,6.029,-0.004,0.016,0.01,102.0,111.0,100.0,13.4,1505.3,324.7,-0.7,1.8,2470.397,13.31,0.016,346.0
2020-12-26T03:07:03,42.805,6.029,-0.011,-0.006,-0.027,101.0,111.0,100.0,13.4,1505.3,327.1,-0.7,1.8,2470.39,13.32,0.012,241.4
2020-12-26T03:10:03,42.805,6.029,-0.024,0.001,0.001,102.0,110.0,100.0,13.3,1505.3,327.9,-0.7,1.8,2470.403,13.32,0.024,272.4
2020-12-26T03:13:03,42.805,6.029,0.009,0.026,-0.001,102.0,111.0,99.0,13.4,1505.3,327.1,-0.7,1.8,2470.423,13.33,0.027,19.1
2020-12-26T03:16:03,42.805,6.029,0.019,0.016,0.004,101.0,110.0,99.0,13.4,1505.3,327.6,-0.7,1.8,2470.365,13.33,0.024,49.9
2020-12-26T03:19:03,42.805,6.029,-0.01,-0.006,0.006,101.0,111.0,99.0,13.4,1505.3,327.7,-0.7,1.8,2470.396,13.33,0.011,239.0
2020-12-26T03:22:03,42.805,6.029,-0.011,0.018,0.0,101.0,110.0,99.0,13.4,1505.3,325.7,-0.7,1.8,2470.411,13.33,0.021,328.6
2020-12-26T03:25:03,42.805,6.029,0.002,0.026,0.015,102.0,110.0,98.0,13.4,1505.3,323.1,-0.7,1.8,2470.413,13.33,0.026,4.4
2020-12-26T03:28:03,42.805,6.029,-0.004,0.004,-0.006,102.0,111.0,99.0,13.3,1505.3,326.6,-0.7,1.8,2470.389,13.33,0.005,315.0
2020-12-26T03:31:03,42.805,6.029,-0.025,0.027,0.008,103.0,112.0,99.0,13.4,1505.3,327.4,-0.7,1.8,2470.363,13.33,0.036,317.2
2020-12-26T03:34:03,42.805,6.029,-0.003,0.032,-0.004,101.0,110.0,100.0,13.4,1505.3,324.6,-0.7,1.8,2470.364,13.33,0.032,354.6
2020-12-26T03:37:03,42.805,6.029,-0.019,0.029,-0.012,101.0,110.0,100.0,13.3,1505.3,325.0,-0.7,1.8,2470.381,13.33,0.034,326.8
2020-12-26T03:40:03,42.805,6.029,0.0,0.008,-0.01,101.0,110.0,100.0,13.4,1505.3,323.0,-0.7,1.8,2470.375,13.33,0.008,0.0
2020-12-26T03:43:03,42.805,6.029,0.0,0.023,0.0,101.0,111.0,100.0,13.4,1505.3,324.7,-0.7,1.9,2470.421,13.33,0.023,0.0
2020-12-26T03:46:03,42.805,6.029,-0.004,0.005,0.008,102.0,111.0,100.0,13.4,1505.3,324.5,-0.7,1.8,2470.391,13.33,0.006,321.3
2020-12-26T03:49:03,42.805,6.029,-0.019,0.023,-0.007,101.0,110.0,100.0,13.4,1505.3,325.8,-0.7,1.8,2470.388,13.33,0.029,320.4
2020-12-26T03:52:03,42.805,6.029,-0.006,0.006,-0.017,101.0,110.0,100.0,13.4,1505.3,327.6,-0.7,1.8,2470.415,13.33,0.008,315.0
2020-12-26T03:55:03,42.805,6.029,-0.003,0.03,0.008,103.0,111.0,99.0,13.4,1505.3,324.5,-0.7,1.8,2470.395,13.33,0.03,354.3
2020-12-26T03:58:03,42.805,6.029,-0.018,0.013,-0.003,101.0,110.0,100.0,13.3,1505.3,324.2,-0.7,1.8,2470.414,13.33,0.022,305.8
2020-12-26T04:04:03,42.805,6.029,-0.024,0.001,-0.003,102.0,111.0,100.0,13.3,1505.3,323.6,-0.7,1.8,2470.458,13.31,0.024,272.4
2020-12-26T04:07:03,42.805,6.029,-0.003,0.009,-0.011,102.0,111.0,99.0,13.4,1505.3,326.8,-0.7,1.8,2470.422,13.32,0.009,341.6
2020-12-26T04:10:03,42.805,6.029,-0.021,0.009,0.0,102.0,110.0,101.0,13.4,1505.3,324.3,-0.7,1.8,2470.426,13.33,0.022,293.2
2020-12-26T04:13:03,42.805,6.029,-0.011,0.016,0.011,101.0,109.0,100.0,13.4,1505.3,326.1,-0.7,1.8,2470.423,13.33,0.019,325.5
2020-12-26T04:16:03,42.805,6.029,-0.03,0.032,0.01,104.0,111.0,98.0,13.4,1505.3,323.0,-0.7,1.8,2470.402,13.33,0.043,316.9
2020-12-26T04:19:03,42.805,6.029,-0.037,0.023,-0.032,102.0,110.0,99.0,13.3,1505.3,326.8,-0.7,1.8,2470.448,13.33,0.043,301.9
2020-12-26T04:22:03,42.805,6.029,0.01,0.024,0.025,102.0,110.0,100.0,13.4,1505.3,324.5,-0.7,1.8,2470.395,13.33,0.026,22.6
2020-12-26T04:25:03,42.805,6.029,-0.005,0.015,0.017,102.0,110.0,99.0,13.4,1505.3,328.0,-0.7,1.8,2470.393,13.33,0.015,341.6
2020-12-26T04:28:03,42.805,6.029,-0.04,0.009,-0.032,102.0,111.0,99.0,13.3,1505.3,325.3,-0.7,1.8,2470.419,13.33,0.041,282.7
2020-12-26T04:31:03,42.805,6.029,-0.001,0.019,0.015,101.0,110.0,99.0,13.4,1505.3,323.9,-0.7,1.8,2470.441,13.33,0.019,357.0
2020-12-26T04:34:03,42.805,6.029,-0.011,0.014,-0.006,102.0,111.0,99.0,13.3,1505.3,324.7,-0.7,1.8,2470.415,13.33,0.017,321.8
2020-12-26T04:37:03,42.805,6.029,-0.007,0.0,-0.013,103.0,109.0,101.0,13.4,1505.3,325.9,-0.7,1.8,2470.36,13.33,0.007,270.0
2020-12-26T04:40:03,42.805,6.029,-0.002,0.014,-0.004,101.0,110.0,101.0,13.4,1505.3,327.6,-0.7,1.8,2470.419,13.33,0.014,351.9
2020-12-26T04:43:03,42.805,6.029,-0.029,0.0,-0.047,99.0,110.0,101.0,13.4,1505.3,328.5,-0.7,1.9,2470.433,13.33,0.028,270.0
2020-12-26T04:46:03,42.805,6.029,0.002,-0.005,0.017,102.0,110.0,99.0,13.3,1505.3,328.0,-0.7,1.8,2470.428,13.33,0.005,158.2
2020-12-26T04:49:03,42.805,6.029,-0.015,0.008,-0.02,102.0,109.0,100.0,13.4,1505.3,327.6,-0.7,1.8,2470.384,13.33,0.017,298.1
2020-12-26T04:52:03,42.805,6.029,0.0,0.01,-0.011,103.0,110.0,99.0,13.4,1505.3,327.1,-0.7,1.8,2470.399,13.33,0.01,0.0
2020-12-26T04:55:03,42.805,6.029,-0.02,0.0,-0.007,101.0,110.0,100.0,13.3,1505.3,327.6,-0.7,1.8,2470.394,13.33,0.02,270.0
2020-12-26T04:58:03,42.805,6.029,0.003,-0.025,-0.011,101.0,110.0,99.0,13.4,1505.3,327.8,-0.7,1.8,2470.394,13.33,0.025,173.2
2020-12-26T05:04:03,42.805,6.029,-0.035,0.006,0.005,102.0,109.0,101.0,13.4,1505.3,323.9,-0.8,1.8,2470.412,13.31,0.035,279.7
2020-12-26T05:07:03,42.805,6.029,-0.024,0.009,-0.024,102.0,109.0,100.0,13.3,1505.3,324.0,-0.7,1.9,2470.427,13.32,0.025,290.6
2020-12-26T05:10:03,42.805,6.029,0.004,0.007,0.005,102.0,108.0,100.0,13.3,1505.3,323.3,-0.7,1.8,2470.397,13.33,0.008,29.7
2020-12-26T05:13:03,42.805,6.029,-0.019,0.006,-0.012,103.0,110.0,99.0,13.3,1505.3,322.9,-0.7,1.8,2470.42,13.33,0.019,287.5
2020-12-26T05:16:03,42.805,6.029,-0.021,0.006,-0.004,101.0,110.0,100.0,13.4,1505.3,326.3,-0.7,1.8,2470.423,13.33,0.021,285.9
2020-12-26T05:19:03,42.805,6.029,-0.012,0.012,0.004,102.0,109.0,100.0,13.3,1505.3,325.9,-0.7,1.8,2470.449,13.33,0.016,315.0
2020-12-26T05:22:03,42.805,6.029,-0.012,0.011,-0.002,100.0,110.0,101.0,13.4,1505.3,326.0,-0.7,1.8,2470.466,13.33,0.016,312.5
2020-12-26T05:25:03,42.805,6.029,-0.016,0.014,-0.019,104.0,107.0,99.0,13.4,1505.3,324.7,-0.7,1.8,2470.389,13.33,0.021,311.2
2020-12-26T05:28:03,42.805,6.029,0.003,0.017,0.013,103.0,110.0,98.0,13.3,1505.3,325.4,-0.7,1.8,2470.416,13.33,0.017,10.0
2020-12-26T05:31:03,42.805,6.029,0.014,0.02,-0.002,103.0,107.0,100.0,13.4,1505.3,327.7,-0.7,1.8,2470.368,13.33,0.024,35.0
2020-12-26T05:34:03,42.805,6.029,0.006,0.0,-0.014,102.0,108.0,99.0,13.4,1505.3,328.3,-0.7,1.8,2470.406,13.33,0.006,90.0
2020-12-26T05:37:03,42.805,6.029,0.003,0.021,0.023,102.0,108.0,100.0,13.3,1505.3,326.6,-0.7,1.8,2470.399,13.33,0.021,8.1
2020-12-26T05:40:03,42.805,6.029,0.014,0.027,-0.001,101.0,108.0,100.0,13.4,1505.3,323.3,-0.7,1.8,2470.424,13.33,0.03,27.4
2020-12-26T05:43:03,42.805,6.029,0.001,0.017,0.025,104.0,107.0,98.0,13.4,1505.3,324.8,-0.7,1.8,2470.392,13.33,0.017,3.4
2020-12-26T05:46:03,42.805,6.029,0.004,0.027,0.006,102.0,108.0,100.0,13.4,1505.3,326.6,-0.7,1.8,2470.394,13.33,0.027,8.4
2020-12-26T05:49:03,42.805,6.029,-0.003,0.006,0.02,101.0,108.0,100.0,13.4,1505.3,326.0,-0.7,1.9,2470.412,13.33,0.006,333.4
2020-12-26T05:52:03,42.805,6.029,-0.004,0.005,-0.035,100.0,109.0,100.0,13.4,1505.3,328.1,-0.7,1.8,2470.419,13.33,0.006,321.3
2020-12-26T05:55:03,42.805,6.029,0.001,0.03,-0.011,103.0,106.0,100.0,13.4,1505.3,323.3,-0.7,1.8,2470.369,13.33,0.03,1.9
2020-12-26T05:58:03,42.805,6.029,-0.012,0.013,-0.034,101.0,108.0,100.0,13.4,1505.3,325.7,-0.7,1.8,2470.438,13.33,0.017,317.3
2020-12-26T06:04:03,42.805,6.029,0.015,0.012,0.009,102.0,107.0,99.0,13.4,1505.3,326.4,-0.7,1.8,2470.447,13.31,0.019,51.3
2020-12-26T06:07:03,42.805,6.029,-0.001,0.015,0.003,101.0,108.0,100.0,13.3,1505.3,326.4,-0.7,1.9,2470.437,13.32,0.015,356.2
2020-12-26T06:10:03,42.805,6.029,0.008,-0.003,0.01,101.0,107.0,100.0,13.3,1505.3,325.3,-0.7,1.8,2470.411,13.32,0.008,110.6
2020-12-26T06:13:03,42.805,6.029,0.0,0.012,0.005,101.0,107.0,99.0,13.3,1505.3,326.6,-0.7,1.9,2470.433,13.33,0.012,0.0
2020-12-26T06:16:03,42.805,6.029,-0.012,0.018,-0.012,102.0,106.0,99.0,13.4,1505.3,323.9,-0.7,1.8,2470.442,13.33,0.021,326.3
2020-12-26T06:19:03,42.805,6.029,-0.002,0.019,0.016,101.0,106.0,100.0,13.4,1505.3,324.0,-0.7,1.8,2470.407,13.33,0.019,354.0
2020-12-26T06:22:03,42.805,6.029,-0.019,0.012,-0.022,102.0,106.0,99.0,13.4,1505.3,326.5,-0.7,1.8,2470.407,13.33,0.022,302.3
2020-12-26T06:25:03,42.805,6.029,-0.018,0.032,-0.006,102.0,107.0,100.0,13.4,1505.3,326.3,-0.6,1.8,2470.421,13.33,0.036,330.6
2020-12-26T06:28:03,42.805,6.029,0.024,0.007,0.005,102.0,106.0,100.0,13.4,1505.3,324.7,-0.8,1.8,2470.412,13.33,0.025,73.7
2020-12-26T06:31:03,42.805,6.029,0.006,0.029,0.008,102.0,106.0,100.0,13.4,1505.3,326.5,-0.7,1.8,2470.397,13.33,0.029,11.7
2020-12-26T06:34:03,42.805,6.029,-0.003,0.025,-0.011,101.0,109.0,100.0,13.4,1505.3,328.5,-0.7,1.8,2470.424,13.33,0.025,353.2
2020-12-26T06:37:03,42.805,6.029,0.018,0.013,0.018,102.0,109.0,100.0,13.4,1505.3,324.3,-0.7,1.8,2470.389,13.33,0.022,54.2
2020-12-26T06:40:03,42.805,6.029,-0.006,0.026,-0.007,102.0,109.0,100.0,13.4,1505.3,323.9,-0.7,1.8,2470.43,13.33,0.026,347.0
2020-12-26T06:43:03,42.805,6.029,-0.019,0.022,0.017,101.0,108.0,101.0,13.3,1505.3,324.5,-0.7,1.8,2470.383,13.33,0.029,319.2
2020-12-26T06:46:03,42.805,6.029,0.012,0.012,-0.005,102.0,108.0,98.0,13.4,1505.3,325.2,-0.7,1.8,2470.375,13.33,0.016,45.0
2020-12-26T06:49:03,42.805,6.029,-0.008,0.015,-0.002,102.0,108.0,100.0,13.4,1505.3,324.3,-0.7,1.8,2470.394,13.33,0.017,331.9
2020-12-26T06:52:03,42.805,6.029,-0.012,0.013,0.022,100.0,108.0,101.0,13.4,1505.3,325.2,-0.7,1.8,2470.413,13.33,0.017,317.3
2020-12-26T06:55:03,42.805,6.029,-0.012,0.007,-0.036,101.0,108.0,100.0,13.4,1505.3,325.9,-0.7,1.8,2470.403,13.33,0.013,300.3
2020-12-26T06:58:03,42.805,6.029,0.009,0.007,0.007,102.0,108.0,100.0,13.4,1505.3,324.5,-0.7,1.9,2470.4,13.33,0.011,52.1
2020-12-26T07:04:03,42.805,6.029,0.004,0.021,0.008,102.0,109.0,100.0,13.4,1505.3,326.4,-0.7,1.8,2470.419,13.31,0.021,10.8
2020-12-26T07:07:03,42.805,6.029,-0.001,0.004,-0.024,101.0,107.0,99.0,13.4,1505.3,323.2,-0.7,1.9,2470.441,13.32,0.004,346.0
2020-12-26T07:10:03,42.805,6.029,-0.003,0.001,-0.022,101.0,107.0,100.0,13.3,1505.3,323.8,-0.7,1.8,2470.472,13.32,0.003,288.4
2020-12-26T07:13:03,42.805,6.029,0.004,0.021,-0.016,101.0,110.0,100.0,13.4,1505.3,324.3,-0.7,1.8,2470.473,13.33,0.021,10.8
2020-12-26T07:16:03,42.805,6.029,0.001,0.0,0.02,103.0,110.0,98.0,13.4,1505.3,325.3,-0.7,1.8,2470.435,13.33,0.001,90.0
2020-12-26T07:19:03,42.805,6.029,-0.017,0.028,-0.008,101.0,109.0,100.0,13.4,1505.3,327.1,-0.7,1.8,2470.408,13.33,0.032,328.7
2020-12-26T07:22:03,42.805,6.029,-0.008,0.014,0.0,102.0,108.0,99.0,13.4,1505.3,326.4,-0.7,1.9,2470.419,13.33,0.016,330.3
2020-12-26T07:25:03,42.805,6.029,-0.004,-0.004,0.003,102.0,108.0,100.0,13.4,1505.3,324.1,-0.7,1.8,2470.419,13.33,0.005,225.0
2020-12-26T07:28:03,42.805,6.029,-0.009,0.004,0.008,101.0,109.0,100.0,13.4,1505.3,324.2,-0.7,1.8,2470.387,13.33,0.009,294.0
2020-12-26T07:31:03,42.805,6.029,-0.004,0.023,0.005,104.0,108.0,100.0,13.4,1505.3,326.7,-0.7,1.8,2470.414,13.33,0.023,350.1
2020-12-26T07:34:03,42.805,6.029,-0.002,0.021,-0.015,101.0,109.0,100.0,13.3,1505.3,328.0,-0.7,1.9,2470.389,13.33,0.021,354.6
2020-12-26T07:37:03,42.805,6.029,-0.024,0.018,0.006,101.0,109.0,100.0,13.4,1505.3,327.0,-0.7,1.8,2470.368,13.33,0.03,306.9
2020-12-26T07:40:03,42.805,6.029,0.034,0.0,-0.006,101.0,109.0,99.0,13.3,1505.3,323.6,-0.7,1.9,2470.428,13.33,0.034,90.0
2020-12-26T07:43:03,42.805,6.029,-0.013,0.008,-0.032,102.0,109.0,100.0,13.4,1505.3,327.2,-0.7,1.8,2470.409,13.33,0.015,301.6
2020-12-26T07:46:03,42.805,6.029,-0.002,0.005,0.0,102.0,109.0,100.0,13.3,1505.3,323.5,-0.7,1.8,2470.368,13.33,0.005,338.2
2020-12-26T07:49:03,42.805,6.029,-0.01,0.008,-0.036,103.0,108.0,99.0,13.4,1505.3,324.9,-0.7,1.8,2470.388,13.33,0.012,308.7
2020-12-26T07:52:03,42.805,6.029,-0.004,0.023,-0.005,103.0,108.0,100.0,13.4,1505.3,325.2,-0.7,1.9,2470.387,13.33,0.023,350.1
2020-12-26T07:55:03,42.805,6.029,-0.02,0.001,-0.007,103.0,108.0,100.0,13.4,1505.3,325.1,-0.7,1.8,2470.363,13.33,0.02,272.9
2020-12-26T07:58:03,42.805,6.029,0.012,0.01,0.013,102.0,108.0,100.0,13.3,1505.3,327.8,-0.7,1.8,2470.4,13.33,0.015,50.2
2020-12-26T08:04:03,42.805,6.029,0.003,0.017,0.0,102.0,109.0,100.0,13.3,1505.3,326.7,-0.7,1.8,2470.418,13.31,0.017,10.0
2020-12-26T08:07:03,42.805,6.029,0.007,0.011,-0.007,101.0,109.0,100.0,13.3,1505.3,325.4,-0.7,1.8,2470.389,13.32,0.013,32.5
2020-12-26T08:10:03,42.805,6.029,-0.006,0.001,-0.024,103.0,108.0,100.0,13.3,1505.3,325.9,-0.7,1.8,2470.38,13.33,0.006,279.5
2020-12-26T08:13:03,42.805,6.029,0.007,0.013,0.003,103.0,109.0,99.0,13.4,1505.3,324.6,-0.7,1.8,2470.43,13.33,0.014,28.3
2020-12-26T08:16:03,42.805,6.029,0.001,0.001,0.0,103.0,108.0,100.0,13.4,1505.3,326.4,-0.7,1.8,2470.39,13.33,0.001,45.0
2020-12-26T08:19:03,42.805,6.029,-0.003,0.01,0.03,103.0,109.0,100.0,13.3,1505.3,327.5,-0.7,1.8,2470.372,13.33,0.01,343.3
2020-12-26T08:22:03,42.805,6.029,-0.007,0.027,0.0,100.0,107.0,101.0,13.3,1505.3,328.0,-0.7,1.8,2470.397,13.33,0.027,345.5
2020-12-26T08:25:03,42.805,6.029,-0.017,0.028,0.024,101.0,108.0,100.0,13.4,1505.3,326.0,-0.7,1.8,2470.371,13.33,0.032,328.7
2020-12-26T08:28:03,42.805,6.029,0.015,0.021,0.026,100.0,107.0,101.0,13.3,1505.3,323.8,-0.7,1.8,2470.399,13.33,0.025,35.5
2020-12-26T08:31:03,42.805,6.029,0.005,0.036,-0.001,102.0,108.0,100.0,13.3,1505.3,322.9,-0.7,1.8,2470.409,13.33,0.036,7.9
2020-12-26T08:34:03,42.805,6.029,-0.037,0.01,-0.006,103.0,110.0,100.0,13.4,1505.3,323.7,-0.7,1.8,2470.36,13.33,0.038,285.1
2020-12-26T08:37:03,42.805,6.029,-0.026,0.006,-0.021,101.0,109.0,102.0,13.4,1505.3,324.6,-0.7,1.8,2470.362,13.33,0.026,283.0
2020-12-26T08:40:03,42.805,6.029,-0.01,0.018,-0.024,102.0,110.0,99.0,13.3,1505.3,324.2,-0.7,1.8,2470.359,13.33,0.02,330.9
2020-12-26T08:43:03,42.805,6.029,-0.015,0.018,-0.008,103.0,109.0,100.0,13.3,1505.3,323.6,-0.6,1.8,2470.386,13.33,0.023,320.2
2020-12-26T08:46:03,42.805,6.029,-0.011,0.013,-0.014,102.0,109.0,101.0,13.4,1505.3,324.0,-0.7,1.9,2470.372,13.33,0.017,319.8
2020-12-26T08:49:03,42.805,6.029,-0.033,0.008,-0.005,101.0,110.0,100.0,13.3,1505.3,325.0,-0.7,1.8,2470.377,13.33,0.033,283.6
2020-12-26T08:52:03,42.805,6.029,-0.019,0.031,-0.007,104.0,108.0,100.0,13.4,1505.4,325.8,-0.7,1.8,2470.337,13.34,0.036,328.5
2020-12-26T08:55:03,42.805,6.029,-0.016,0.032,0.024,102.0,108.0,100.0,13.4,1505.4,327.4,-0.7,1.8,2470.334,13.34,0.035,333.4
2020-12-26T08:58:03,42.805,6.029,0.005,0.011,0.024,104.0,108.0,101.0,13.3,1505.4,327.8,-0.7,1.8,2470.361,13.34,0.012,24.4
2020-12-26T09:04:03,42.805,6.029,-0.001,0.01,0.021,103.0,110.0,100.0,13.4,1505.3,323.0,-0.7,1.8,2470.402,13.31,0.01,354.3
2020-12-26T09:07:03,42.805,6.029,0.0,0.025,-0.033,105.0,108.0,100.0,13.4,1505.3,326.4,-0.7,1.9,2470.381,13.32,0.025,0.0
2020-12-26T09:10:03,42.805,6.029,-0.003,0.016,-0.013,103.0,108.0,102.0,13.4,1505.3,326.7,-0.7,1.8,2470.377,13.32,0.016,349.4
2020-12-26T09:13:03,42.805,6.029,0.017,0.009,0.013,103.0,109.0,101.0,13.4,1505.3,324.9,-0.7,1.8,2470.392,13.33,0.019,62.1
2020-12-26T09:16:03,42.805,6.029,-0.014,0.012,0.006,102.0,108.0,101.0,13.3,1505.3,325.3,-0.7,1.8,2470.402,13.33,0.018,310.6
2020-12-26T09:19:03,42.805,6.029,0.022,0.012,0.012,104.0,108.0,100.0,13.3,1505.3,323.8,-0.7,1.9,2470.331,13.33,0.025,61.4
2020-12-26T09:22:03,42.805,6.029,-0.012,0.004,-0.001,103.0,108.0,101.0,13.3,1505.3,325.7,-0.7,1.8,2470.385,13.33,0.012,288.4
2020-12-26T09:25:03,42.805,6.029,0.0,0.013,0.014,105.0,110.0,101.0,13.4,1505.3,325.3,-0.7,1.8,2470.379,13.33,0.013,0.0
2020-12-26T09:28:03,42.805,6.029,0.014,0.035,0.026,103.0,109.0,101.0,13.3,1505.3,326.4,-0.7,1.8,2470.375,13.33,0.037,21.8
2020-12-26T09:31:03,42.805,6.029,-0.008,0.0,-0.012,103.0,110.0,100.0,13.4,1505.3,323.0,-0.7,1.9,2470.351,13.33,0.008,270.0
2020-12-26T09:34:03,42.805,6.029,-0.021,0.019,0.017,104.0,110.0,100.0,13.3,1505.3,323.5,-0.7,1.8,2470.368,13.33,0.028,312.1
2020-12-26T09:37:03,42.805,6.029,-0.004,-0.004,-0.014,102.0,108.0,100.0,13.3,1505.3,323.1,-0.7,1.8,2470.343,13.33,0.005,225.0
2020-12-26T09:40:03,42.805,6.029,-0.008,0.018,-0.018,103.0,107.0,100.0,13.4,1505.3,323.5,-0.7,1.8,2470.325,13.33,0.019,336.0
2020-12-26T09:43:03,42.805,6.029,-0.017,0.027,0.016,103.0,106.0,101.0,13.4,1505.3,326.7,-0.7,1.8,2470.318,13.33,0.031,327.8
2020-12-26T09:46:03,42.805,6.029,-0.019,0.019,0.001,104.0,111.0,102.0,13.4,1505.3,324.7,-0.7,1.8,2470.343,13.33,0.026,315.0
2020-12-26T09:49:03,42.805,6.029,-0.017,0.009,-0.009,104.0,109.0,100.0,13.3,1505.3,324.7,-0.7,1.8,2470.32,13.33,0.019,297.9
2020-12-26T09:52:03,42.805,6.029,-0.005,0.016,0.005,104.0,109.0,102.0,13.4,1505.3,326.4,-0.7,1.8,2470.37,13.33,0.016,342.6
2020-12-26T09:55:03,42.805,6.029,-0.004,0.017,0.003,105.0,107.0,101.0,13.4,1505.3,323.0,-0.7,1.9,2470.31,13.33,0.017,346.8
2020-12-26T09:58:03,42.805,6.029,-0.027,0.036,0.0,103.0,108.0,102.0,13.3,1505.3,328.1,-0.7,1.8,2470.342,13.33,0.045,323.1
2020-12-26T10:04:03,42.805,6.029,-0.01,0.01,0.009,102.0,108.0,102.0,13.3,1505.3,327.0,-0.7,1.8,2470.411,13.31,0.014,315.0